Year,Month,Day,Hour,Minute,Value (Times are PST for temperature in C)
2015,09,21,00,00,11.10
2015,09,21,00,01,11.10
2015,09,21,00,02,11.10
2015,09,21,00,03,11.10
2015,09,21,00,04,11.00
2015,09,21,00,05,11.00
2015,09,21,00,06,11.00
2015,09,21,00,07,10.90
2015,09,21,00,08,10.90
2015,09,21,00,09,10.90
2015,09,21,00,10,10.90
2015,09,21,00,11,10.90
2015,09,21,00,12,10.80
2015,09,21,00,13,10.80
2015,09,21,00,14,10.80
2015,09,21,00,15,10.80
2015,09,21,00,16,10.80
2015,09,21,00,17,10.80
2015,09,21,00,18,10.70
2015,09,21,00,19,10.70
2015,09,21,00,20,10.70
2015,09,21,00,21,10.70
2015,09,21,00,22,10.70
2015,09,21,00,23,10.60
2015,09,21,00,24,10.60
2015,09,21,00,25,10.60
2015,09,21,00,26,10.60
2015,09,21,00,27,10.60
2015,09,21,00,28,10.50
2015,09,21,00,29,10.50
2015,09,21,00,30,10.50
2015,09,21,00,31,10.50
2015,09,21,00,32,10.50
2015,09,21,00,33,10.40
2015,09,21,00,34,10.40
2015,09,21,00,35,10.40
2015,09,21,00,36,10.40
2015,09,21,00,37,10.40
2015,09,21,00,38,10.40
2015,09,21,00,39,10.30
2015,09,21,00,40,10.30
2015,09,21,00,41,10.30
2015,09,21,00,42,10.30
2015,09,21,00,43,10.20
2015,09,21,00,44,10.20
2015,09,21,00,45,10.20
2015,09,21,00,46,10.10
2015,09,21,00,47,10.10
2015,09,21,00,48,10.10
2015,09,21,00,49,10.10
2015,09,21,00,50,10.00
2015,09,21,00,51,10.00
2015,09,21,00,52,10.00
2015,09,21,00,53,10.00
2015,09,21,00,54,9.90
2015,09,21,00,55,9.90
2015,09,21,00,56,9.90
2015,09,21,00,57,9.90
2015,09,21,00,58,9.90
2015,09,21,00,59,9.90
2015,09,21,01,00,9.80
2015,09,21,01,01,9.80
2015,09,21,01,02,9.80
2015,09,21,01,03,9.80
2015,09,21,01,04,9.70
2015,09,21,01,05,9.70
2015,09,21,01,06,9.70
2015,09,21,01,07,9.70
2015,09,21,01,08,9.70
2015,09,21,01,09,9.60
2015,09,21,01,10,9.60
2015,09,21,01,11,9.60
2015,09,21,01,12,9.50
2015,09,21,01,13,9.50
2015,09,21,01,14,9.50
2015,09,21,01,15,9.40
2015,09,21,01,16,9.40
2015,09,21,01,17,9.40
2015,09,21,01,18,9.40
2015,09,21,01,19,9.40
2015,09,21,01,20,9.30
2015,09,21,01,21,9.30
2015,09,21,01,22,9.30
2015,09,21,01,23,9.30
2015,09,21,01,24,9.20
2015,09,21,01,25,9.20
2015,09,21,01,26,9.20
2015,09,21,01,27,9.10
2015,09,21,01,28,9.10
2015,09,21,01,29,9.10
2015,09,21,01,30,9.10
2015,09,21,01,31,9.00
2015,09,21,01,32,9.00
2015,09,21,01,33,9.00
2015,09,21,01,34,9.00
2015,09,21,01,35,9.00
2015,09,21,01,36,9.00
2015,09,21,01,37,9.00
2015,09,21,01,38,9.00
2015,09,21,01,39,9.10
2015,09,21,01,40,9.10
2015,09,21,01,41,9.10
2015,09,21,01,42,9.10
2015,09,21,01,43,9.10
2015,09,21,01,44,9.10
2015,09,21,01,45,9.20
2015,09,21,01,46,9.20
2015,09,21,01,47,9.20
2015,09,21,01,48,9.20
2015,09,21,01,49,9.20
2015,09,21,01,50,9.20
2015,09,21,01,51,9.20
2015,09,21,01,52,9.20
2015,09,21,01,53,9.20
2015,09,21,01,54,9.20
2015,09,21,01,55,9.20
2015,09,21,01,56,9.20
2015,09,21,01,57,9.20
2015,09,21,01,58,9.10
2015,09,21,01,59,9.10
2015,09,21,02,00,9.10
2015,09,21,02,01,9.10
2015,09,21,02,02,9.10
2015,09,21,02,03,9.10
2015,09,21,02,04,9.10
2015,09,21,02,05,9.00
2015,09,21,02,06,9.00
2015,09,21,02,07,9.00
2015,09,21,02,08,9.00
2015,09,21,02,09,9.00
2015,09,21,02,10,9.00
2015,09,21,02,11,9.00
2015,09,21,02,12,9.00
2015,09,21,02,13,9.00
2015,09,21,02,14,9.10
2015,09,21,02,15,9.10
2015,09,21,02,16,9.10
2015,09,21,02,17,9.10
2015,09,21,02,18,9.10
2015,09,21,02,19,9.10
2015,09,21,02,20,9.10
2015,09,21,02,21,9.10
2015,09,21,02,22,9.10
2015,09,21,02,23,9.10
2015,09,21,02,24,9.10
2015,09,21,02,25,9.10
2015,09,21,02,26,9.10
2015,09,21,02,27,9.10
2015,09,21,02,28,9.10
2015,09,21,02,29,9.10
2015,09,21,02,30,9.10
2015,09,21,02,31,9.10
2015,09,21,02,32,9.10
2015,09,21,02,33,9.10
2015,09,21,02,34,9.10
2015,09,21,02,35,9.10
2015,09,21,02,36,9.10
2015,09,21,02,37,9.10
2015,09,21,02,38,9.10
2015,09,21,02,39,9.10
2015,09,21,02,40,9.10
2015,09,21,02,41,9.10
2015,09,21,02,42,9.10
2015,09,21,02,43,9.10
2015,09,21,02,44,9.10
2015,09,21,02,45,9.10
2015,09,21,02,46,9.10
2015,09,21,02,47,9.10
2015,09,21,02,48,9.10
2015,09,21,02,49,9.10
2015,09,21,02,50,9.20
2015,09,21,02,51,9.20
2015,09,21,02,52,9.20
2015,09,21,02,53,9.20
2015,09,21,02,54,9.20
2015,09,21,02,55,9.10
2015,09,21,02,56,9.10
2015,09,21,02,57,9.10
2015,09,21,02,58,9.10
2015,09,21,02,59,9.10
2015,09,21,03,00,9.10
2015,09,21,03,01,9.10
2015,09,21,03,02,9.10
2015,09,21,03,03,9.10
2015,09,21,03,04,9.10
2015,09,21,03,05,9.10
2015,09,21,03,06,9.10
2015,09,21,03,07,9.10
2015,09,21,03,08,9.10
2015,09,21,03,09,9.00
2015,09,21,03,10,9.00
2015,09,21,03,11,9.10
2015,09,21,03,12,9.10
2015,09,21,03,13,9.10
2015,09,21,03,14,9.10
2015,09,21,03,15,9.10
2015,09,21,03,16,9.10
2015,09,21,03,17,9.10
2015,09,21,03,18,9.10
2015,09,21,03,19,9.20
2015,09,21,03,20,9.20
2015,09,21,03,21,9.30
2015,09,21,03,22,9.30
2015,09,21,03,23,9.30
2015,09,21,03,24,9.30
2015,09,21,03,25,9.30
2015,09,21,03,26,9.30
2015,09,21,03,27,9.30
2015,09,21,03,28,9.30
2015,09,21,03,29,9.30
2015,09,21,03,30,9.30
2015,09,21,03,31,9.30
2015,09,21,03,32,9.30
2015,09,21,03,33,9.30
2015,09,21,03,34,9.40
2015,09,21,03,35,9.40
2015,09,21,03,36,9.40
2015,09,21,03,37,9.40
2015,09,21,03,38,9.40
2015,09,21,03,39,9.40
2015,09,21,03,40,9.40
2015,09,21,03,41,9.30
2015,09,21,03,42,9.30
2015,09,21,03,43,9.30
2015,09,21,03,44,9.30
2015,09,21,03,45,9.30
2015,09,21,03,46,9.30
2015,09,21,03,47,9.30
2015,09,21,03,48,9.30
2015,09,21,03,49,9.30
2015,09,21,03,50,9.30
2015,09,21,03,51,9.30
2015,09,21,03,52,9.30
2015,09,21,03,53,9.30
2015,09,21,03,54,9.20
2015,09,21,03,55,9.20
2015,09,21,03,56,9.20
2015,09,21,03,57,9.20
2015,09,21,03,58,9.20
2015,09,21,03,59,9.20
2015,09,21,04,00,9.20
2015,09,21,04,01,9.20
2015,09,21,04,02,9.20
2015,09,21,04,03,9.10
2015,09,21,04,04,9.10
2015,09,21,04,05,9.10
2015,09,21,04,06,9.10
2015,09,21,04,07,9.20
2015,09,21,04,08,9.20
2015,09,21,04,09,9.20
2015,09,21,04,10,9.20
2015,09,21,04,11,9.20
2015,09,21,04,12,9.20
2015,09,21,04,13,9.20
2015,09,21,04,14,9.20
2015,09,21,04,15,9.20
2015,09,21,04,16,9.30
2015,09,21,04,17,9.30
2015,09,21,04,18,9.30
2015,09,21,04,19,9.40
2015,09,21,04,20,9.40
2015,09,21,04,21,9.40
2015,09,21,04,22,9.50
2015,09,21,04,23,9.60
2015,09,21,04,24,9.60
2015,09,21,04,25,9.70
2015,09,21,04,26,9.70
2015,09,21,04,27,9.70
2015,09,21,04,28,9.80
2015,09,21,04,29,9.80
2015,09,21,04,30,9.80
2015,09,21,04,31,9.80
2015,09,21,04,32,9.80
2015,09,21,04,33,9.80
2015,09,21,04,34,9.80
2015,09,21,04,35,9.80
2015,09,21,04,36,9.80
2015,09,21,04,37,9.80
2015,09,21,04,38,9.80
2015,09,21,04,39,9.80
2015,09,21,04,40,9.80
2015,09,21,04,41,9.80
2015,09,21,04,42,9.90
2015,09,21,04,43,9.90
2015,09,21,04,44,9.90
2015,09,21,04,45,9.90
2015,09,21,04,46,9.90
2015,09,21,04,47,9.90
2015,09,21,04,48,9.90
2015,09,21,04,49,9.90
2015,09,21,04,50,10.00
2015,09,21,04,51,10.00
2015,09,21,04,52,10.00
2015,09,21,04,53,10.00
2015,09,21,04,54,10.00
2015,09,21,04,55,10.00
2015,09,21,04,56,10.00
2015,09,21,04,57,9.90
2015,09,21,04,58,9.90
2015,09,21,04,59,9.90
2015,09,21,05,00,9.90
2015,09,21,05,01,9.90
2015,09,21,05,02,9.90
2015,09,21,05,03,9.90
2015,09,21,05,04,9.90
2015,09,21,05,05,9.90
2015,09,21,05,06,9.80
2015,09,21,05,07,9.80
2015,09,21,05,08,9.80
2015,09,21,05,09,9.90
2015,09,21,05,10,9.90
2015,09,21,05,11,9.90
2015,09,21,05,12,9.90
2015,09,21,05,13,9.90
2015,09,21,05,14,9.90
2015,09,21,05,15,9.80
2015,09,21,05,16,9.80
2015,09,21,05,17,9.90
2015,09,21,05,18,9.90
2015,09,21,05,19,9.90
2015,09,21,05,20,9.90
2015,09,21,05,21,9.90
2015,09,21,05,22,9.90
2015,09,21,05,23,9.80
2015,09,21,05,24,9.80
2015,09,21,05,25,9.80
2015,09,21,05,26,9.80
2015,09,21,05,27,9.80
2015,09,21,05,28,9.70
2015,09,21,05,29,9.70
2015,09,21,05,30,9.70
2015,09,21,05,31,9.70
2015,09,21,05,32,9.60
2015,09,21,05,33,9.60
2015,09,21,05,34,9.60
2015,09,21,05,35,9.50
2015,09,21,05,36,9.50
2015,09,21,05,37,9.40
2015,09,21,05,38,9.40
2015,09,21,05,39,9.40
2015,09,21,05,40,9.30
2015,09,21,05,41,9.30
2015,09,21,05,42,9.30
2015,09,21,05,43,9.20
2015,09,21,05,44,9.20
2015,09,21,05,45,9.20
2015,09,21,05,46,9.10
2015,09,21,05,47,9.10
2015,09,21,05,48,9.00
2015,09,21,05,49,9.00
2015,09,21,05,50,8.90
2015,09,21,05,51,8.90
2015,09,21,05,52,8.90
2015,09,21,05,53,8.90
2015,09,21,05,54,8.80
2015,09,21,05,55,8.80
2015,09,21,05,56,8.80
2015,09,21,05,57,8.80
2015,09,21,05,58,8.80
2015,09,21,05,59,8.80
2015,09,21,06,00,8.70
2015,09,21,06,01,8.70
2015,09,21,06,02,8.60
2015,09,21,06,03,8.60
2015,09,21,06,04,8.60
2015,09,21,06,05,8.50
2015,09,21,06,06,8.50
2015,09,21,06,07,8.40
2015,09,21,06,08,8.30
2015,09,21,06,09,8.30
2015,09,21,06,10,8.20
2015,09,21,06,11,8.20
2015,09,21,06,12,8.20
2015,09,21,06,13,8.10
2015,09,21,06,14,8.10
2015,09,21,06,15,8.00
2015,09,21,06,16,7.90
2015,09,21,06,17,7.90
2015,09,21,06,18,7.80
2015,09,21,06,19,7.80
2015,09,21,06,20,7.70
2015,09,21,06,21,7.70
2015,09,21,06,22,7.70
2015,09,21,06,23,7.60
2015,09,21,06,24,7.60
2015,09,21,06,25,7.50
2015,09,21,06,26,7.50
2015,09,21,06,27,7.50
2015,09,21,06,28,7.50
2015,09,21,06,29,7.50
2015,09,21,06,30,7.40
2015,09,21,06,31,7.40
2015,09,21,06,32,7.30
2015,09,21,06,33,7.30
2015,09,21,06,34,7.20
2015,09,21,06,35,7.20
2015,09,21,06,36,7.10
2015,09,21,06,37,7.10
2015,09,21,06,38,7.10
2015,09,21,06,39,7.20
2015,09,21,06,40,7.30
2015,09,21,06,41,7.30
2015,09,21,06,42,7.40
2015,09,21,06,43,7.40
2015,09,21,06,44,7.50
2015,09,21,06,45,7.60
2015,09,21,06,46,7.70
2015,09,21,06,47,7.70
2015,09,21,06,48,7.70
2015,09,21,06,49,7.70
2015,09,21,06,50,7.60
2015,09,21,06,51,7.60
2015,09,21,06,52,7.70
2015,09,21,06,53,7.70
2015,09,21,06,54,7.70
2015,09,21,06,55,7.70
2015,09,21,06,56,7.70
2015,09,21,06,57,7.70
2015,09,21,06,58,7.70
2015,09,21,06,59,7.70
2015,09,21,07,00,7.70
2015,09,21,07,01,7.70
2015,09,21,07,02,7.70
2015,09,21,07,03,7.70
2015,09,21,07,04,7.70
2015,09,21,07,05,7.80
2015,09,21,07,06,7.80
2015,09,21,07,07,7.80
2015,09,21,07,08,7.80
2015,09,21,07,09,7.80
2015,09,21,07,10,7.90
2015,09,21,07,11,7.80
2015,09,21,07,12,7.80
2015,09,21,07,13,7.80
2015,09,21,07,14,7.80
2015,09,21,07,15,7.80
2015,09,21,07,16,7.80
2015,09,21,07,17,7.70
2015,09,21,07,18,7.70
2015,09,21,07,19,7.70
2015,09,21,07,20,7.70
2015,09,21,07,21,7.70
2015,09,21,07,22,7.70
2015,09,21,07,23,7.70
2015,09,21,07,24,7.60
2015,09,21,07,25,7.60
2015,09,21,07,26,7.60
2015,09,21,07,27,7.70
2015,09,21,07,28,7.70
2015,09,21,07,29,7.70
2015,09,21,07,30,7.70
2015,09,21,07,31,7.70
2015,09,21,07,32,7.80
2015,09,21,07,33,7.80
2015,09,21,07,34,7.90
2015,09,21,07,35,7.90
2015,09,21,07,36,8.00
2015,09,21,07,37,8.00
2015,09,21,07,38,8.00
2015,09,21,07,39,8.00
2015,09,21,07,40,8.10
2015,09,21,07,41,8.10
2015,09,21,07,42,8.10
2015,09,21,07,43,8.20
2015,09,21,07,44,8.30
2015,09,21,07,45,8.40
2015,09,21,07,46,8.50
2015,09,21,07,47,8.60
2015,09,21,07,48,8.70
2015,09,21,07,49,8.70
2015,09,21,07,50,8.70
2015,09,21,07,51,8.70
2015,09,21,07,52,8.80
2015,09,21,07,53,8.80
2015,09,21,07,54,8.90
2015,09,21,07,55,8.90
2015,09,21,07,56,8.90
2015,09,21,07,57,8.90
2015,09,21,07,58,8.90
2015,09,21,07,59,8.90
2015,09,21,08,00,8.90
2015,09,21,08,01,8.90
2015,09,21,08,02,8.80
2015,09,21,08,03,8.80
2015,09,21,08,04,8.80
2015,09,21,08,05,8.70
2015,09,21,08,06,8.70
2015,09,21,08,07,8.60
2015,09,21,08,08,8.60
2015,09,21,08,09,8.60
2015,09,21,08,10,8.60
2015,09,21,08,11,8.50
2015,09,21,08,12,8.60
2015,09,21,08,13,8.60
2015,09,21,08,14,8.60
2015,09,21,08,15,8.60
2015,09,21,08,16,8.60
2015,09,21,08,17,8.60
2015,09,21,08,18,8.60
2015,09,21,08,19,8.60
2015,09,21,08,20,8.60
2015,09,21,08,21,8.70
2015,09,21,08,22,8.70
2015,09,21,08,23,8.70
2015,09,21,08,24,8.70
2015,09,21,08,25,8.70
2015,09,21,08,26,8.80
2015,09,21,08,27,8.80
2015,09,21,08,28,8.80
2015,09,21,08,29,8.80
2015,09,21,08,30,8.90
2015,09,21,08,31,8.90
2015,09,21,08,32,9.00
2015,09,21,08,33,9.00
2015,09,21,08,34,9.10
2015,09,21,08,35,9.20
2015,09,21,08,36,9.30
2015,09,21,08,37,9.40
2015,09,21,08,38,9.40
2015,09,21,08,39,9.50
2015,09,21,08,40,9.50
2015,09,21,08,41,9.60
2015,09,21,08,42,9.60
2015,09,21,08,43,9.70
2015,09,21,08,44,9.80
2015,09,21,08,45,9.80
2015,09,21,08,46,9.90
2015,09,21,08,47,10.00
2015,09,21,08,48,10.10
2015,09,21,08,49,10.10
2015,09,21,08,50,10.20
2015,09,21,08,51,10.20
2015,09,21,08,52,10.30
2015,09,21,08,53,10.30
2015,09,21,08,54,10.40
2015,09,21,08,55,10.40
2015,09,21,08,56,10.50
2015,09,21,08,57,10.50
2015,09,21,08,58,10.60
2015,09,21,08,59,10.60
2015,09,21,09,00,10.70
2015,09,21,09,01,10.70
2015,09,21,09,02,10.70
2015,09,21,09,03,10.80
2015,09,21,09,04,10.80
2015,09,21,09,05,10.90
2015,09,21,09,06,10.90
2015,09,21,09,07,11.00
2015,09,21,09,08,11.10
2015,09,21,09,09,11.10
2015,09,21,09,10,11.20
2015,09,21,09,11,11.20
2015,09,21,09,12,11.20
2015,09,21,09,13,11.30
2015,09,21,09,14,11.30
2015,09,21,09,15,11.40
2015,09,21,09,16,11.40
2015,09,21,09,17,11.40
2015,09,21,09,18,11.50
2015,09,21,09,19,11.50
2015,09,21,09,20,11.60
2015,09,21,09,21,11.60
2015,09,21,09,22,11.60
2015,09,21,09,23,11.60
2015,09,21,09,24,11.70
2015,09,21,09,25,11.70
2015,09,21,09,26,11.70
2015,09,21,09,27,11.80
2015,09,21,09,28,11.80
2015,09,21,09,29,11.80
2015,09,21,09,30,11.80
2015,09,21,09,31,11.90
2015,09,21,09,32,11.90
2015,09,21,09,33,11.90
2015,09,21,09,34,11.90
2015,09,21,09,35,12.00
2015,09,21,09,36,12.00
2015,09,21,09,37,12.10
2015,09,21,09,38,12.10
2015,09,21,09,39,12.10
2015,09,21,09,40,12.20
2015,09,21,09,41,12.20
2015,09,21,09,42,12.20
2015,09,21,09,43,12.20
2015,09,21,09,44,12.30
2015,09,21,09,45,12.30
2015,09,21,09,46,12.30
2015,09,21,09,47,12.30
2015,09,21,09,48,12.30
2015,09,21,09,49,12.30
2015,09,21,09,50,12.30
2015,09,21,09,51,12.30
2015,09,21,09,52,12.30
2015,09,21,09,53,12.40
2015,09,21,09,54,12.40
2015,09,21,09,55,12.40
2015,09,21,09,56,12.40
2015,09,21,09,57,12.40
2015,09,21,09,58,12.50
2015,09,21,09,59,12.50
2015,09,21,10,00,12.50
2015,09,21,10,01,12.60
2015,09,21,10,02,12.60
2015,09,21,10,03,12.60
2015,09,21,10,04,12.60
2015,09,21,10,05,12.60
2015,09,21,10,06,12.60
2015,09,21,10,07,12.70
2015,09,21,10,08,12.70
2015,09,21,10,09,12.70
2015,09,21,10,10,12.80
2015,09,21,10,11,12.80
2015,09,21,10,12,12.80
2015,09,21,10,13,12.80
2015,09,21,10,14,12.80
2015,09,21,10,15,12.70
2015,09,21,10,16,12.60
2015,09,21,10,17,12.60
2015,09,21,10,18,12.60
2015,09,21,10,19,12.50
2015,09,21,10,20,12.50
2015,09,21,10,21,12.50
2015,09,21,10,22,12.40
2015,09,21,10,23,12.40
2015,09,21,10,24,12.40
2015,09,21,10,25,12.40
2015,09,21,10,26,12.40
2015,09,21,10,27,12.40
2015,09,21,10,28,12.40
2015,09,21,10,29,12.50
2015,09,21,10,30,12.50
2015,09,21,10,31,12.50
2015,09,21,10,32,12.50
2015,09,21,10,33,12.60
2015,09,21,10,34,12.50
2015,09,21,10,35,12.60
2015,09,21,10,36,12.60
2015,09,21,10,37,12.60
2015,09,21,10,38,12.70
2015,09,21,10,39,12.70
2015,09,21,10,40,12.80
2015,09,21,10,41,12.80
2015,09,21,10,42,12.80
2015,09,21,10,43,12.90
2015,09,21,10,44,12.90
2015,09,21,10,45,12.80
2015,09,21,10,46,12.80
2015,09,21,10,47,12.80
2015,09,21,10,48,12.80
2015,09,21,10,49,12.80
2015,09,21,10,50,12.80
2015,09,21,10,51,12.80
2015,09,21,10,52,12.70
2015,09,21,10,53,12.70
2015,09,21,10,54,12.70
2015,09,21,10,55,12.70
2015,09,21,10,56,12.70
2015,09,21,10,57,12.70
2015,09,21,10,58,12.80
2015,09,21,10,59,12.80
2015,09,21,11,00,12.90
2015,09,21,11,01,12.90
2015,09,21,11,02,13.00
2015,09,21,11,03,13.10
2015,09,21,11,04,13.10
2015,09,21,11,05,13.10
2015,09,21,11,06,13.10
2015,09,21,11,07,13.10
2015,09,21,11,08,13.00
2015,09,21,11,09,12.90
2015,09,21,11,10,12.90
2015,09,21,11,11,12.90
2015,09,21,11,12,12.90
2015,09,21,11,13,12.90
2015,09,21,11,14,12.90
2015,09,21,11,15,12.80
2015,09,21,11,16,12.80
2015,09,21,11,17,12.80
2015,09,21,11,18,12.80
2015,09,21,11,19,12.80
2015,09,21,11,20,12.80
2015,09,21,11,21,12.90
2015,09,21,11,22,13.00
2015,09,21,11,23,13.10
2015,09,21,11,24,13.20
2015,09,21,11,25,13.30
2015,09,21,11,26,13.40
2015,09,21,11,27,13.40
2015,09,21,11,28,13.50
2015,09,21,11,29,13.50
2015,09,21,11,30,13.60
2015,09,21,11,31,13.70
2015,09,21,11,32,13.70
2015,09,21,11,33,13.80
2015,09,21,11,34,13.80
2015,09,21,11,35,13.80
2015,09,21,11,36,13.90
2015,09,21,11,37,13.90
2015,09,21,11,38,13.90
2015,09,21,11,39,14.00
2015,09,21,11,40,14.00
2015,09,21,11,41,14.00
2015,09,21,11,42,14.00
2015,09,21,11,43,13.90
2015,09,21,11,44,13.90
2015,09,21,11,45,13.90
2015,09,21,11,46,14.00
2015,09,21,11,47,14.10
2015,09,21,11,48,14.00
2015,09,21,11,49,13.90
2015,09,21,11,50,13.70
2015,09,21,11,51,13.70
2015,09,21,11,52,13.70
2015,09,21,11,53,13.70
2015,09,21,11,54,13.70
2015,09,21,11,55,13.70
2015,09,21,11,56,13.70
2015,09,21,11,57,13.80
2015,09,21,11,58,13.80
2015,09,21,11,59,13.80
2015,09,21,12,00,13.80
2015,09,21,12,01,13.80
2015,09,21,12,02,13.80
2015,09,21,12,03,13.90
2015,09,21,12,04,13.90
2015,09,21,12,05,14.00
2015,09,21,12,06,14.10
2015,09,21,12,07,14.20
2015,09,21,12,08,14.20
2015,09,21,12,09,14.30
2015,09,21,12,10,14.30
2015,09,21,12,11,14.20
2015,09,21,12,12,14.10
2015,09,21,12,13,14.00
2015,09,21,12,14,13.90
2015,09,21,12,15,13.80
2015,09,21,12,16,13.70
2015,09,21,12,17,13.60
2015,09,21,12,18,13.50
2015,09,21,12,19,13.40
2015,09,21,12,20,13.30
2015,09,21,12,21,13.20
2015,09,21,12,22,13.20
2015,09,21,12,23,13.20
2015,09,21,12,24,13.20
2015,09,21,12,25,13.20
2015,09,21,12,26,13.30
2015,09,21,12,27,13.30
2015,09,21,12,28,13.30
2015,09,21,12,29,13.30
2015,09,21,12,30,13.20
2015,09,21,12,31,13.20
2015,09,21,12,32,13.20
2015,09,21,12,33,13.20
2015,09,21,12,34,13.20
2015,09,21,12,35,13.20
2015,09,21,12,36,13.30
2015,09,21,12,37,13.30
2015,09,21,12,38,13.30
2015,09,21,12,39,13.40
2015,09,21,12,40,13.40
2015,09,21,12,41,13.40
2015,09,21,12,42,13.40
2015,09,21,12,43,13.40
2015,09,21,12,44,13.30
2015,09,21,12,45,13.30
2015,09,21,12,46,13.20
2015,09,21,12,47,13.20
2015,09,21,12,48,13.20
2015,09,21,12,49,13.20
2015,09,21,12,50,13.30
2015,09,21,12,51,13.20
2015,09,21,12,52,13.20
2015,09,21,12,53,13.20
2015,09,21,12,54,13.30
2015,09,21,12,55,13.30
2015,09,21,12,56,13.30
2015,09,21,12,57,13.30
2015,09,21,12,58,13.20
2015,09,21,12,59,13.20
2015,09,21,13,00,13.30
2015,09,21,13,01,13.30
2015,09,21,13,02,13.30
2015,09,21,13,03,13.30
2015,09,21,13,04,13.30
2015,09,21,13,05,13.30
2015,09,21,13,06,13.30
2015,09,21,13,07,13.30
2015,09,21,13,08,13.40
2015,09,21,13,09,13.40
2015,09,21,13,10,13.50
2015,09,21,13,11,13.60
2015,09,21,13,12,13.60
2015,09,21,13,13,13.70
2015,09,21,13,14,13.70
2015,09,21,13,15,13.70
2015,09,21,13,16,13.70
2015,09,21,13,17,13.70
2015,09,21,13,18,13.70
2015,09,21,13,19,13.80
2015,09,21,13,20,13.80
2015,09,21,13,21,13.80
2015,09,21,13,22,13.80
2015,09,21,13,23,13.80
2015,09,21,13,24,13.80
2015,09,21,13,25,13.80
2015,09,21,13,26,13.90
2015,09,21,13,27,13.90
2015,09,21,13,28,13.90
2015,09,21,13,29,14.00
2015,09,21,13,30,14.00
2015,09,21,13,31,14.10
2015,09,21,13,32,14.10
2015,09,21,13,33,14.10
2015,09,21,13,34,14.10
2015,09,21,13,35,14.20
2015,09,21,13,36,14.20
2015,09,21,13,37,14.20
2015,09,21,13,38,14.20
2015,09,21,13,39,14.30
2015,09,21,13,40,14.30
2015,09,21,13,41,14.30
2015,09,21,13,42,14.30
2015,09,21,13,43,14.30
2015,09,21,13,44,14.30
2015,09,21,13,45,14.30
2015,09,21,13,46,14.40
2015,09,21,13,47,14.40
2015,09,21,13,48,14.50
2015,09,21,13,49,14.60
2015,09,21,13,50,14.70
2015,09,21,13,51,14.80
2015,09,21,13,52,14.80
2015,09,21,13,53,14.90
2015,09,21,13,54,15.00
2015,09,21,13,55,15.00
2015,09,21,13,56,15.10
2015,09,21,13,57,15.20
2015,09,21,13,58,15.30
2015,09,21,13,59,15.30
2015,09,21,14,00,15.30
2015,09,21,14,01,15.30
2015,09,21,14,02,15.40
2015,09,21,14,03,15.40
2015,09,21,14,04,15.40
2015,09,21,14,05,15.40
2015,09,21,14,06,15.30
2015,09,21,14,07,15.30
2015,09,21,14,08,15.30
2015,09,21,14,09,15.30
2015,09,21,14,10,15.30
2015,09,21,14,11,15.30
2015,09,21,14,12,15.30
2015,09,21,14,13,15.20
2015,09,21,14,14,15.20
2015,09,21,14,15,15.20
2015,09,21,14,16,15.20
2015,09,21,14,17,15.20
2015,09,21,14,18,15.20
2015,09,21,14,19,15.20
2015,09,21,14,20,15.10
2015,09,21,14,21,14.90
2015,09,21,14,22,14.80
2015,09,21,14,23,14.70
2015,09,21,14,24,14.60
2015,09,21,14,25,14.50
2015,09,21,14,26,14.40
2015,09,21,14,27,14.40
2015,09,21,14,28,14.50
2015,09,21,14,29,14.50
2015,09,21,14,30,14.60
2015,09,21,14,31,14.60
2015,09,21,14,32,14.60
2015,09,21,14,33,14.70
2015,09,21,14,34,14.70
2015,09,21,14,35,14.70
2015,09,21,14,36,14.70
2015,09,21,14,37,14.70
2015,09,21,14,38,14.70
2015,09,21,14,39,14.70
2015,09,21,14,40,14.70
2015,09,21,14,41,14.70
2015,09,21,14,42,14.80
2015,09,21,14,43,14.80
2015,09,21,14,44,14.80
2015,09,21,14,45,14.80
2015,09,21,14,46,14.70
2015,09,21,14,47,14.70
2015,09,21,14,48,14.70
2015,09,21,14,49,14.70
2015,09,21,14,50,14.60
2015,09,21,14,51,14.60
2015,09,21,14,52,14.60
2015,09,21,14,53,14.60
2015,09,21,14,54,14.60
2015,09,21,14,55,14.60
2015,09,21,14,56,14.60
2015,09,21,14,57,14.60
2015,09,21,14,58,14.60
2015,09,21,14,59,14.60
2015,09,21,15,00,14.60
2015,09,21,15,01,14.60
2015,09,21,15,02,14.60
2015,09,21,15,03,14.50
2015,09,21,15,04,14.50
2015,09,21,15,05,14.40
2015,09,21,15,06,14.40
2015,09,21,15,07,14.40
2015,09,21,15,08,14.40
2015,09,21,15,09,14.40
2015,09,21,15,10,14.40
2015,09,21,15,11,14.40
2015,09,21,15,12,14.50
2015,09,21,15,13,14.60
2015,09,21,15,14,14.60
2015,09,21,15,15,14.70
2015,09,21,15,16,14.70
2015,09,21,15,17,14.70
2015,09,21,15,18,14.70
2015,09,21,15,19,14.70
2015,09,21,15,20,14.70
2015,09,21,15,21,14.60
2015,09,21,15,22,14.60
2015,09,21,15,23,14.60
2015,09,21,15,24,14.60
2015,09,21,15,25,14.60
2015,09,21,15,26,14.60
2015,09,21,15,27,14.70
2015,09,21,15,28,14.70
2015,09,21,15,29,14.70
2015,09,21,15,30,14.80
2015,09,21,15,31,14.80
2015,09,21,15,32,14.80
2015,09,21,15,33,14.70
2015,09,21,15,34,14.70
2015,09,21,15,35,14.70
2015,09,21,15,36,14.80
2015,09,21,15,37,14.80
2015,09,21,15,38,14.80
2015,09,21,15,39,14.80
2015,09,21,15,40,14.80
2015,09,21,15,41,14.80
2015,09,21,15,42,14.90
2015,09,21,15,43,14.90
2015,09,21,15,44,14.90
2015,09,21,15,45,14.90
2015,09,21,15,46,15.00
2015,09,21,15,47,15.00
2015,09,21,15,48,15.10
2015,09,21,15,49,15.10
2015,09,21,15,50,15.20
2015,09,21,15,51,15.20
2015,09,21,15,52,15.30
2015,09,21,15,53,15.30
2015,09,21,15,54,15.30
2015,09,21,15,55,15.30
2015,09,21,15,56,15.20
2015,09,21,15,57,15.20
2015,09,21,15,58,15.20
2015,09,21,15,59,15.10
2015,09,21,16,00,15.10
2015,09,21,16,01,15.10
2015,09,21,16,02,15.10
2015,09,21,16,03,15.10
2015,09,21,16,04,15.20
2015,09,21,16,05,15.20
2015,09,21,16,06,15.20
2015,09,21,16,07,15.30
2015,09,21,16,08,15.30
2015,09,21,16,09,15.30
2015,09,21,16,10,15.30
2015,09,21,16,11,15.40
2015,09,21,16,12,15.40
2015,09,21,16,13,15.40
2015,09,21,16,14,15.40
2015,09,21,16,15,15.40
2015,09,21,16,16,15.40
2015,09,21,16,17,15.40
2015,09,21,16,18,15.50
2015,09,21,16,19,15.50
2015,09,21,16,20,15.50
2015,09,21,16,21,15.40
2015,09,21,16,22,15.40
2015,09,21,16,23,15.30
2015,09,21,16,24,15.30
2015,09,21,16,25,15.30
2015,09,21,16,26,15.30
2015,09,21,16,27,15.30
2015,09,21,16,28,15.40
2015,09,21,16,29,15.40
2015,09,21,16,30,15.40
2015,09,21,16,31,15.40
2015,09,21,16,32,15.40
2015,09,21,16,33,15.40
2015,09,21,16,34,15.40
2015,09,21,16,35,15.50
2015,09,21,16,36,15.50
2015,09,21,16,37,15.50
2015,09,21,16,38,15.40
2015,09,21,16,39,15.40
2015,09,21,16,40,15.50
2015,09,21,16,41,15.50
2015,09,21,16,42,15.50
2015,09,21,16,43,15.50
2015,09,21,16,44,15.60
2015,09,21,16,45,15.60
2015,09,21,16,46,15.60
2015,09,21,16,47,15.60
2015,09,21,16,48,15.60
2015,09,21,16,49,15.60
2015,09,21,16,50,15.60
2015,09,21,16,51,15.60
2015,09,21,16,52,15.60
2015,09,21,16,53,15.60
2015,09,21,16,54,15.60
2015,09,21,16,55,15.60
2015,09,21,16,56,15.60
2015,09,21,16,57,15.70
2015,09,21,16,58,15.70
2015,09,21,16,59,15.70
2015,09,21,17,00,15.70
2015,09,21,17,01,15.70
2015,09,21,17,02,15.70
2015,09,21,17,03,15.70
2015,09,21,17,04,15.70
2015,09,21,17,05,15.70
2015,09,21,17,06,15.70
2015,09,21,17,07,15.70
2015,09,21,17,08,15.70
2015,09,21,17,09,15.70
2015,09,21,17,10,15.70
2015,09,21,17,11,15.70
2015,09,21,17,12,15.70
2015,09,21,17,13,15.70
2015,09,21,17,14,15.60
2015,09,21,17,15,15.60
2015,09,21,17,16,15.70
2015,09,21,17,17,15.70
2015,09,21,17,18,15.70
2015,09,21,17,19,15.80
2015,09,21,17,20,15.80
2015,09,21,17,21,15.80
2015,09,21,17,22,15.80
2015,09,21,17,23,15.80
2015,09,21,17,24,15.70
2015,09,21,17,25,15.70
2015,09,21,17,26,15.70
2015,09,21,17,27,15.60
2015,09,21,17,28,15.60
2015,09,21,17,29,15.60
2015,09,21,17,30,15.60
2015,09,21,17,31,15.60
2015,09,21,17,32,15.60
2015,09,21,17,33,15.60
2015,09,21,17,34,15.50
2015,09,21,17,35,15.50
2015,09,21,17,36,15.50
2015,09,21,17,37,15.40
2015,09,21,17,38,15.40
2015,09,21,17,39,15.40